Weather History for KMCB - April, 2014

Change the Weather History Date:

Sunday, April 6, 2014

  Actual Average Record
Temperature  
Mean Temperature 62 °F -  
Max Temperature 72 °F 74 °F 86 °F (1955)
Min Temperature 52 °F 46 °F 33 °F (1971)
Degree Days  
Heating Degree Days 3    
Growing Degree Days 12 (Base 50)    
Moisture  
Dew Point 58 °F    
Average Humidity 94    
Maximum Humidity 100    
Minimum Humidity 84    
Precipitation  
Precipitation 0.38 in - - ()
Sea Level Pressure  
Sea Level Pressure 29.82 in    
Wind  
Wind Speed 6 mph (ESE)    
Max Wind Speed 17 mph    
Max Gust Speed 25 mph    
Visibility 6 miles    
Events Rain , Thunderstorm    
Averages and records for this station are not official NWS values.
T = Trace of Precipitation, MM = Missing Value Source: NWS Daily Summary

Daily Weather History Graph

Daily Weather History Graph

Search for Another Location

Airport or City:

Trip Planner

Search our weather history database for the weather conditions in past years. The results will help you decide how hot, cold, wet, or windy it might be!

Date:

Astronomy

Apr. 06, 2014 Rise Set
Actual Time 6:44 AM CDT 7:24 PM CDT
Civil Twilight 6:20 AM CDT 7:48 PM CDT
Nautical Twilight 5:51 AM CDT 8:17 PM CDT
Astronomical Twilight 5:21 AM CDT 8:47 PM CDT
Moon 11:57 AM CDT (4/6) 1:08 AM CDT (4/6)
Length of Visible Light 13h 28m
Length of Day
12h 39m
Waxing Crescent, 44% of the Moon is Illuminated
Apr 6
Waxing Crescent
Apr 7
First Quarter
Apr 15
Full
Apr 22
Last Quarter
Apr 29
New

Hourly Weather History & Observations

Time (CDT) Temp. Dew Point Humidity Pressure Visibility Wind Dir Wind Speed Gust Speed Precip Events Conditions
12:14 AM 57.9 °F 53.1 °F 84% 29.97 in 10.0 mi Variable 3.5 mph - 0.00 in Rain , Thunderstorm Light Thunderstorms and Rain
12:32 AM 57.0 °F 53.1 °F 87% 29.96 in 10.0 mi Calm Calm - 0.00 in   Overcast
12:53 AM 57.0 °F 54.0 °F 89% 29.94 in 6.0 mi Calm Calm - 0.00 in Rain Light Rain
1:29 AM 57.0 °F 54.0 °F 89% 29.94 in 10.0 mi North 4.6 mph - 0.00 in Thunderstorm Thunderstorm
1:53 AM 57.0 °F 54.0 °F 89% 29.92 in 10.0 mi Calm Calm - 0.00 in   Overcast
2:41 AM 55.9 °F 54.0 °F 93% 29.91 in 9.0 mi NNE 5.8 mph - 0.01 in   Overcast
2:53 AM 55.9 °F 54.0 °F 93% 29.90 in 2.0 mi East 4.6 mph - 0.12 in Rain Heavy Rain
3:05 AM 55.9 °F 54.0 °F 93% 29.91 in 8.0 mi NE 5.8 mph - 0.00 in Rain Light Rain
3:45 AM 55.9 °F 54.0 °F 93% 29.90 in 4.0 mi ENE 4.6 mph - 0.05 in Rain Light Rain
3:53 AM 55.9 °F 54.0 °F 93% 29.91 in 5.0 mi North 5.8 mph - 0.05 in Rain Light Rain
4:06 AM 55.9 °F 54.0 °F 93% 29.95 in 7.0 mi NW 16.1 mph - 0.00 in Rain Light Rain
4:53 AM 54.0 °F 52.0 °F 93% 29.95 in 3.0 mi North 12.7 mph 18.4 mph 0.04 in Rain Rain
5:53 AM 52.0 °F 50.0 °F 93% 29.96 in 10.0 mi NE 6.9 mph - 0.05 in Rain Light Rain
6:34 AM 52.0 °F 51.1 °F 97% 29.96 in 10.0 mi ENE 4.6 mph - 0.03 in   Overcast
6:53 AM 52.0 °F 51.1 °F 97% 29.94 in 10.0 mi ENE 8.1 mph - 0.03 in Rain Light Rain
7:11 AM 52.0 °F 52.0 °F 100% 29.95 in 6.0 mi Variable 5.8 mph - 0.00 in Rain Light Rain
7:53 AM 53.1 °F 53.1 °F 100% 29.93 in 10.0 mi East 9.2 mph - 0.01 in   Overcast
8:53 AM 54.0 °F 54.0 °F 100% 29.90 in 10.0 mi East 9.2 mph - 0.00 in   Overcast
9:53 AM 55.9 °F 54.0 °F 93% 29.91 in 10.0 mi ENE 8.1 mph - N/A   Overcast
10:53 AM 57.0 °F 54.0 °F 89% 29.91 in 10.0 mi ENE 6.9 mph - N/A   Overcast
11:53 AM 57.0 °F 54.0 °F 89% 29.90 in 7.0 mi East 8.1 mph 16.1 mph N/A   Overcast
12:53 PM 57.0 °F 55.0 °F 93% 29.87 in 6.0 mi ENE 6.9 mph - 0.00 in   Overcast
1:45 PM 57.0 °F 55.9 °F 96% 29.85 in 7.0 mi Variable 6.9 mph - 0.02 in   Overcast
1:53 PM 57.0 °F 55.9 °F 96% 29.83 in 4.0 mi Variable 3.5 mph - 0.03 in Rain Light Rain
2:53 PM 57.9 °F 57.0 °F 97% 29.78 in 5.0 mi East 8.1 mph - 0.00 in   Overcast
3:26 PM 57.9 °F 57.0 °F 97% 29.76 in 2.5 mi Variable 6.9 mph - 0.00 in   Overcast
3:41 PM 59.0 °F 57.9 °F 96% 29.76 in 3.0 mi Variable 6.9 mph - 0.00 in   Overcast
3:53 PM 60.1 °F 57.9 °F 93% 29.74 in 4.0 mi ESE 5.8 mph - 0.00 in   Overcast
4:53 PM 61.0 °F 60.1 °F 97% 29.71 in 4.0 mi SE 5.8 mph - 0.00 in   Overcast
5:34 PM 62.1 °F 61.0 °F 96% 29.71 in 2.5 mi SE 8.1 mph - N/A   Overcast
5:45 PM 63.0 °F 61.0 °F 93% 29.71 in 3.0 mi SSE 5.8 mph - N/A   Overcast
5:53 PM 63.0 °F 61.0 °F 93% 29.70 in 2.0 mi SE 8.1 mph - N/A   Overcast
6:08 PM 63.0 °F 62.1 °F 97% 29.70 in 1.8 mi SE 9.2 mph - 0.00 in Rain Light Rain
6:33 PM 63.0 °F 62.1 °F 97% 29.68 in 2.0 mi SSE 11.5 mph - 0.00 in Rain Light Rain
6:53 PM 64.0 °F 62.1 °F 93% 29.68 in 2.5 mi SSE 11.5 mph - 0.01 in Rain Light Rain
7:00 PM 64.0 °F 63.0 °F 96% 29.69 in 4.0 mi SSE 12.7 mph - 0.00 in   Overcast
7:53 PM 66.0 °F 64.9 °F 96% 29.67 in 4.0 mi South 10.4 mph - 0.00 in Rain Light Rain
8:53 PM 69.1 °F 66.9 °F 93% 29.66 in 5.0 mi SSE 10.4 mph - 0.01 in   Overcast
9:06 PM 70.0 °F 68.0 °F 93% 29.67 in 6.0 mi South 13.8 mph - N/A   Overcast
9:53 PM 71.1 °F 69.1 °F 93% 29.66 in 8.0 mi South 17.3 mph 25.3 mph N/A   Overcast
10:53 PM 72.0 °F 69.1 °F 91% 29.64 in 8.0 mi South 11.5 mph - N/A   Overcast
11:47 PM 71.6 °F 69.8 °F 94% 29.62 in 6.0 mi South 15.0 mph 21.9 mph 0.00 in Rain , Thunderstorm Light Thunderstorms and Rain
11:53 PM 72.0 °F 70.0 °F 93% 29.62 in 4.0 mi South 13.8 mph 21.9 mph 0.03 in Rain , Thunderstorm Thunderstorms and Rain